Preview of NWS' New Version of Forecast
This preview is not operational and should not be used for support decisions.

Regional Weather Roundup (RWR)

Issued by National Weather Service (NWS)

                            
000
ASUS42 KTBW 252016
RWRFL 
FLORIDA REGIONAL WEATHER ROUNDUP
NATIONAL WEATHER SERVICE TAMPA BAY RUSKIN FL
400 PM EDT TUE JUN 25 2019

NOTE: "FAIR" INDICATES FEW OR NO CLOUDS BELOW 12,000 FEET WITH NO
SIGNIFICANT WEATHER AND/OR OBSTRUCTIONS TO VISIBILITY.

FLZ001>010-012>015-112-114-115-252100-
PANHANDLE FLORIDA
  
CITY           SKY/WX    TMP DP  RH WIND       PRES   REMARKS
PENSACOLA      FAIR      95  73  48 W6        30.04F HX 104           
PENSACOLA NAS  FAIR      90  80  72 SW14      30.05F HX 107           
MILTON NAS     PTSUNNY   93  74  53 W6        30.05F HX 103           
CRESTVIEW      FAIR      96  68  39 W6        30.06F HX 101           
DUKE FIELD     DRIZZLE   97  70  41 N12       30.04F HX 103           
VALPARAISO     PTSUNNY   92  77  61 SW13      30.04F HX 106           
MARY ESTHER    PTSUNNY   90  78  69 S12G17    30.03F HX 104           
TRI COUNTY     FAIR      94  73  50 W6        30.04F HX 103           
PANAMA CITY    FAIR      91  75  59 W7        30.04S HX 101           
TYNDALL AFB    FAIR      90  76  64 W12       30.04F HX 102           
APALACHICOLA   FAIR      93  73  52 W10       30.05F HX 102           

STATION/POSITION SKY/WX   TEMP    WIND        PRES    WAVE   SWELL
                          AIR SEA DIR/SP/G            HT/PER HT/PER
                          (F)     (DEG/KT/KT) (MB)    (FT/S) (FT/S)
30.1N   87.6W                                   N/A     2/ 5
29.2N   88.2W                     240/  4/  6 1018.7F   2/ 6   2/ 6
PANAMA CITY BEAC           85 83  250/ 10/ 11 1018.4F
TOWER C          NOT AVBL

$$
FLZ011-016>038-118-127-128-134-139-239-252100-
NORTH FLORIDA
  
CITY           SKY/WX    TMP DP  RH WIND       PRES   REMARKS
MARIANNA       FAIR      94  72  48 W10       30.03F HX 102           
TALLAHASSEE    PTSUNNY   95  75  52 NW10      30.03F HX 107           
PERRY          FAIR      94  76  54 NW6       30.04F HX 107           
LIVE OAK       MOSUNNY   93  73  52 W9        30.03F HX 102           
CROSS CITY     FAIR      94  71  45 SW12      30.03F HX 101           
LAKE CITY      FAIR      91  72  52 NW14      30.04F HX  98           
GAINESVILLE    FAIR      94  76  55 NW9       30.05F HX 106           
PALATKA        FAIR      93  73  52 NW8G16    30.02F HX 102           
MAYPORT NAS    PTSUNNY   96  71  44 W8        30.01F HX 103           
JACKSONVILLE   FAIR      96  70  42 NW14G20   30.00F HX 102           
JAX NAS        PTSUNNY   96  68  39 NW8G18    30.01F HX 101           
JAX CECIL      MOSUNNY  100  70  37 W7G16     30.02S HX 107           
FERNANDINA BEA FAIR      96  70  43 W17G23    30.01S HX 102           
ST AUGUSTINE   FAIR      89  77  67 E12       30.02F HX 101           
PALM COAST     MOSUNNY   91  75  59 E12       30.02F HX 102           

STATION/POSITION SKY/WX   TEMP    WIND        PRES    WAVE   SWELL
                          AIR SEA DIR/SP/G            HT/PER HT/PER
                          (F)     (DEG/KT/KT) (MB)    (FT/S) (FT/S)
SHELL POINT      NOT AVBL
KEATON BEACH               86     240/ 10/ 11 1017.3F
CEDAR KEY                  88     300/  8/ 12 1017.6F
FERNANDINA                 95 84  280/ 10/ 13 1017.1S
30.7N   81.3W                 85                N/A     1/ 9
MAYPORT                    93 81  280/ 11/ 13 1016.7F
31.4N   80.9W              87 86  230/  4/  4 1015.9F   1/ 3
ST AUGUSTINE               83 83   90/  9/ 10 1016.6F

$$
FLZ040-043>046-052-053-057-058-063-144-252100-
INTERIOR CENTRAL FLORIDA
  
CITY           SKY/WX    TMP DP  RH WIND       PRES   REMARKS
OCALA          FAIR      96  75  50 VRB5      30.03F HX 108           
LEESBURG       FAIR      96  73  47 W5        30.03F HX 105           
SANFORD        FAIR      95  72  47 CALM      30.01F HX 103           
ORLANDO EXEC   FAIR      97  69  40 NW5       30.02F HX 103           
ORLANDO INTL   FAIR      96  68  39 NW5       30.02F HX 101           
KISSIMMEE      FAIR      97  71  42 W8        30.03F HX 104           
WINTER HAVEN   PTSUNNY   99  72  41 VRB6      30.04F HX 108           
LAKELAND       MOSUNNY   95  73  49 CALM      30.04F HX 105           
SEBRING        FAIR      97  72  44 NW8       30.03S HX 105           
OKEECHOBEE     FAIR      95  70  43 N6        30.02F HX 101           

$$
FLZ041-047-054-059-064-141-147-252100-
EAST CENTRAL FLORIDA
  
CITY           SKY/WX    TMP DP  RH WIND       PRES   REMARKS
ORMOND BEACH   MOSUNNY   90  77  66 NE9       30.02F HAZE    HX 102   
DAYTONA BEACH  FAIR      91  79  67 E9        30.03F HX 107           
DELAND         FAIR      95  75  52 NW6       30.01F HX 107           
NEW SMYRNA BEA MOSUNNY   90  77  66 NE9       30.04F HX 102           
JFK SPACE CTR  FAIR      89  66  45 NE12      30.03S                  
TITUSVILLE     MOSUNNY   95  79  59 E9        30.04S HX 112           
CAPE CANAVERAL FAIR      88  36  16 E8        30.03S                  
PATRICK AFB    FAIR      87  82  86 E12       30.03F HX 105           
MELBOURNE      FAIR      89  79  72 E12       30.03F HX 104           
VERO BEACH     FAIR      90  77  65 NE15      30.04F HX 103           
FT PIERCE      FAIR      89  73  59 E12       30.03F HX  97           
STUART         SUNNY     90  75  62 NE9       30.05F SMOKE   HX 100   

STATION/POSITION SKY/WX   TEMP    WIND        PRES    WAVE   SWELL
                          AIR SEA DIR/SP/G            HT/PER HT/PER
                          (F)     (DEG/KT/KT) (MB)    (FT/S) (FT/S)
28.5N   80.2W              84 84   20/ 10/ 12 1017.0F   1/ 9   2/ 9
28.9N   78.5W              84 84  320/ 10/ 12   N/A     2/ 4   2/ 8
TRIDENT PIER               85 76   80/  8/ 11 1018.7F
28.4N   80.5W                 81                N/A     1/ 9
27.5N   80.2W                 82                N/A     1/ 8

$$
FLZ050-056-061-142-242-148-248-149-249-151-251-155-255-
160-260-252100-
WEST CENTRAL FLORIDA
  
CITY           SKY/WX    TMP DP  RH WIND       PRES   REMARKS
CRYSTAL RIVER  FAIR     N/A N/A N/A W14       30.05S                  
INVERNESS      FAIR      95  73  49 W6        30.03F HX 105           
BROOKSVILLE    FAIR      95  75  52 NW9       30.05F HX 107           
CLEARWATER AIR FAIR      88  72  58 NW10      30.05S                  
ST PETE CLEARW FAIR      92  72  51 NW8       30.04F HX  99           
TAMPA INTL     FAIR      95  74  50 NW7       30.04F HX 105           
MACDILL AFB    FAIR      93  75  55 W8        30.04F HX 103           
PETER O KNIGHT PTSUNNY   95  79  59 W7        30.04F HX 112           
ST PETERSBURG  FAIR      93  72  50 W6        30.02F HX 101           
SARASOTA       FAIR      94  74  52 W13       30.02F HX 104           
VENICE         FAIR      93  81  66 NW14      30.05F HX 113           

STATION/POSITION SKY/WX   TEMP    WIND        PRES    WAVE   SWELL
                          AIR SEA DIR/SP/G            HT/PER HT/PER
                          (F)     (DEG/KT/KT) (MB)    (FT/S) (FT/S)
27.3N   84.2W                 89                N/A     1/ 5
CLEARWATER BEACH           86 90  330/  7/  9 1018.0F
MIDDLE TAMPA BAY           88     290/ 10/ 12 1017.9F
VENICE                     87 86  300/ 14/ 15 1017.2F

$$
FLZ066-069-070-075>078-162-262-165-265-252100-
SOUTHWEST FLORIDA AND KEYS
  
CITY           SKY/WX    TMP DP  RH WIND       PRES   REMARKS
PUNTA GORDA    FAIR      94  73  50 SW13      30.04F HX 103           
FT MYERS       FAIR      97  68  38 N6        30.01F HX 102           
SOUTHWEST INTL FAIR      95  69  42 NE5       30.02F HX 100           
NAPLES         FAIR      93  76  57 W13       30.02F HX 105           
IMMOKALEE      FAIR      99  72  41 VRB6G14   30.00F HX 107           
MARATHON       FAIR      92  76  59 S5        30.03F HX 104           
KEY WEST NAS   FAIR      95  76  53 N6        30.03F HX 108           
KEY WEST INTL  PTSUNNY   89  76  65 SE6       30.04F HX 100           

STATION/POSITION SKY/WX   TEMP    WIND        PRES    WAVE   SWELL
                          AIR SEA DIR/SP/G            HT/PER HT/PER
                          (F)     (DEG/KT/KT) (MB)    (FT/S) (FT/S)
NAPLES                     89 91              1017.2F
DRY TORTUGAS               86      80/  4/  4 1017.6F
SAND KEY                   86                 1017.2F
SOMBRERO KEY               87     160/  2/  4   N/A
LONG KEY                   90     280/  4/ 11 1016.6

$$
FLZ067-068-071>074-168-172>174-252100-
SOUTHEAST FLORIDA 
  
CITY           SKY/WX    TMP DP  RH WIND       PRES   REMARKS
W PALM BEACH   FAIR      93  77  59 E9        30.03F HX 107           
BOCA RATON     MOSUNNY   97  72  44 SE9       30.02F HX 105           
FT LAUDER-EXEC FAIR      94  71  47 E12       30.00F HX 101           
FT LAUDERDALE  FAIR      93  73  52 SE13      30.01F HX 102           
POMPANO BEACH  FAIR      93  74  53 SE12      30.02F HX 103           
PEMBROKE PINES FAIR      95  71  45 SE13      30.02F HX 102           
OPA LOCKA      FAIR      94  74  52 VRB6      30.02F HX 104           
MIAMI          PTSUNNY   93  71  48 VRB3      30.01F HX 100           
WEST KENDALL   FAIR      91  73  55 E6        30.01F HX  99           
HOMESTEAD      FAIR      94  74  51 E7        30.01F HX 104           

STATION/POSITION SKY/WX   TEMP    WIND        PRES    WAVE   SWELL
                          AIR SEA DIR/SP/G            HT/PER HT/PER
                          (F)     (DEG/KT/KT) (MB)    (FT/S) (FT/S)
VIRGINIA KEY               88 91  140/  9/ 10 1016.5F
LAKE WORTH                 86 83   80/  8/ 10 1018.2F
FOWEY ROCKS                86 85  150/  9/  9 1017.0F
SETTLEMENT POINT           86     240/  5/  6 1017.5F

$$